Time,TemperatureF,DewpointF,PressureIn,WindDirection,WindDirectionDegrees,WindSpeedMPH,WindSpeedGustMPH,Humidity,HourlyPrecipIn,Conditions,Clouds,dailyrainin,SoftwareType,DateUTC
2014-07-28 00:02:00,65.3,40.4,29.98,SW,219,0.0,0.0,40,0.00,,---,0.00,VWS V14.01,2014-07-28 07:02:00,
2014-07-28 00:12:00,65.0,40.1,29.98,SW,219,0.0,0.0,40,0.00,,---,0.00,VWS V14.01,2014-07-28 07:12:00,
2014-07-28 00:22:00,64.7,40.5,29.98,North,360,0.0,0.0,41,0.00,,---,0.00,VWS V14.01,2014-07-28 07:22:00,
2014-07-28 00:32:00,64.2,40.0,29.98,SW,219,0.0,0.0,41,0.00,,---,0.00,VWS V14.01,2014-07-28 07:32:00,
2014-07-28 00:42:00,63.8,40.3,29.98,SW,221,0.0,0.0,42,0.00,,---,0.00,VWS V14.01,2014-07-28 07:42:00,
2014-07-28 00:52:00,63.4,39.9,29.99,SW,221,0.0,0.0,42,0.00,,---,0.00,VWS V14.01,2014-07-28 07:52:00,
2014-07-28 01:02:00,63.1,39.7,29.99,SW,220,0.0,0.0,42,0.00,,---,0.00,VWS V14.01,2014-07-28 08:02:00,
2014-07-28 01:12:00,62.8,40.0,29.97,SW,219,0.0,0.0,43,0.00,,---,0.00,VWS V14.01,2014-07-28 08:12:00,
2014-07-28 01:22:00,62.5,39.7,29.97,SW,219,0.0,0.0,43,0.00,,---,0.00,VWS V14.01,2014-07-28 08:22:00,
2014-07-28 01:32:00,62.1,39.4,29.98,SW,219,0.0,0.0,43,0.00,,---,0.00,VWS V14.01,2014-07-28 08:32:00,
2014-07-28 01:42:00,61.7,39.6,29.98,North,360,0.0,0.0,44,0.00,,---,0.00,VWS V14.01,2014-07-28 08:42:00,
2014-07-28 01:52:00,61.3,39.8,29.98,SW,219,0.0,0.0,45,0.00,,---,0.00,VWS V14.01,2014-07-28 08:52:00,
2014-07-28 02:02:00,60.9,40.0,29.96,SW,219,0.0,0.0,46,0.00,,---,0.00,VWS V14.01,2014-07-28 09:02:00,
2014-07-28 02:12:00,60.7,39.8,29.96,SW,219,0.0,0.0,46,0.00,,---,0.00,VWS V14.01,2014-07-28 09:12:00,
2014-07-28 02:22:00,60.4,39.5,29.97,SW,219,0.0,0.0,46,0.00,,---,0.00,VWS V14.01,2014-07-28 09:22:00,
2014-07-28 02:32:00,60.1,39.3,29.97,SW,219,0.0,0.0,46,0.00,,---,0.00,VWS V14.01,2014-07-28 09:32:00,
2014-07-28 02:42:00,59.8,39.0,29.98,SW,219,0.0,0.0,46,0.00,,---,0.00,VWS V14.01,2014-07-28 09:42:00,
2014-07-28 02:52:00,59.4,38.6,29.98,SW,219,0.0,0.0,46,0.00,,---,0.00,VWS V14.01,2014-07-28 09:52:00,
2014-07-28 03:02:00,59.0,38.8,29.98,SW,219,0.0,0.0,47,0.00,,---,0.00,VWS V14.01,2014-07-28 10:02:00,
2014-07-28 03:12:00,58.9,38.7,29.99,SW,219,0.0,0.0,47,0.00,,---,0.00,VWS V14.01,2014-07-28 10:12:00,
2014-07-28 03:22:00,58.4,38.8,29.99,SW,219,0.0,0.0,48,0.00,,---,0.00,VWS V14.01,2014-07-28 10:22:00,